This demonstration page uses our WeatherBlox Daily Observations layout. Learn more.

Left ArrowRight Arrow

39.92423, -83.80882

Hourly Observations for February 4, 2016

Temp ( °F °C ) Dew Point ( °F °C ) Humidity (%) Winds ( mph kmh ) Pressure ( in mb ) Visibility ( mi km ) Precip ( " mm )
12:12 am 00:12 Cloudy 36 2 30 -1 81 81 W 16 26 30.09 1019 10 16 N/A
12:34 am 00:34 Mostly Cloudy with Light Snow 34 1 30 -1 87 87 W 13 20 30.12 1020 4 6 N/A
12:56 am 00:56 Mostly Cloudy 34 1.1 31 -0.5 89 89 W 12 19 30.06 1018 10 16 N/A
1:56 am 01:56 Cloudy with Light Wintry Mix 33 0.5 30 -1.1 89 89 W 13 20 30.09 1019 10 16 N/A
2:56 am 02:56 Cloudy 32 undefined 28 -2.2 85 85 W 14 22 30.12 1020 10 16 N/A
3:10 am 03:10 Cloudy 32 undefined 28 -2 87 87 W 12 19 30.18 1022 10 16 N/A
3:23 am 03:23 Cloudy 32 undefined 27 -3 80 80 WSW 16 26 30.18 1022 10 16 N/A
3:56 am 03:56 Cloudy 32 undefined 27 -2.7 82 82 W 12 19 30.13 1020 10 16 N/A
4:56 am 04:56 Cloudy 31 -0.5 27 -2.7 85 85 W 9 15 30.15 1021 10 16 N/A
5:56 am 05:56 Cloudy 31 -0.5 25 -3.8 79 79 W 10 17 30.17 1022 10 16 N/A
6:56 am 06:56 Cloudy 30 -1.1 25 -3.8 82 82 W 8 13 30.19 1022 10 16 N/A
7:56 am 07:56 Cloudy 30 -1.1 24 -4.4 79 79 W 8 13 30.21 1023 10 16 N/A
8:56 am 08:56 Cloudy 29 -1.6 24 -4.4 81 81 W 7 11 30.23 1024 10 16 N/A
9:56 am 09:56 Cloudy 30 -1.1 25 -3.8 82 82 W 8 13 30.24 1024 10 16 N/A
10:56 am 10:56 Cloudy 30 -1.1 25 -3.8 82 82 W 7 11 30.25 1024 10 16 N/A
11:56 am 11:56 Cloudy with Light Wintry Mix 30 -1.1 25 -3.8 82 82 W 9 15 30.25 1024 10 16 N/A
12:56 pm 12:56 Cloudy with Light Wintry Mix 30 -1.1 25 -3.8 82 82 WNW 13 20 30.23 1024 10 16 N/A
1:56 pm 13:56 Cloudy with Light Wintry Mix 29 -1.6 24 -4.4 81 81 W 9 15 30.23 1024 10 16 N/A
2:46 pm 14:46 Cloudy 30 -1 23 -5 75 75 WSW 12 19 30.24 1024 10 16 N/A
2:56 pm 14:56 Cloudy 31 -0.5 23 -5 72 72 W 12 19 30.22 1023 10 16 N/A
3:56 pm 15:56 Cloudy 30 -1.1 24 -4.4 79 79 W 8 13 30.24 1024 10 16 N/A
4:03 pm 16:03 Cloudy 28 -2 25 -4 86 86 W 9 15 30.30 1026 10 16 N/A
4:56 pm 16:56 Cloudy 29 -1.6 23 -5 78 78 W 9 15 30.26 1025 10 16 N/A
5:56 pm 17:56 Cloudy with Light Wintry Mix 29 -1.6 23 -5 78 78 W 9 15 30.27 1025 10 16 N/A
6:56 pm 18:56 Cloudy 29 -1.6 21 -6.1 72 72 W 9 15 30.29 1026 10 16 N/A
7:08 pm 19:08 Cloudy 28 -2 21 -6 74 74 W 10 17 30.36 1028 10 16 N/A
7:36 pm 19:36 Cloudy 28 -2 19 -7 69 69 W 14 22 30.36 1028 10 16 N/A
7:44 pm 19:44 Mostly Cloudy 28 -2 19 -7 69 69 WNW 13 20 30.36 1028 10 16 N/A
7:56 pm 19:56 Mostly Cloudy 28 -2.2 19 -7.2 69 69 W 12 19 30.32 1027 10 16 N/A
8:56 pm 20:56 Cloudy 28 -2.2 19 -7.2 69 69 WNW 12 19 30.33 1027 10 16 N/A
9:56 pm 21:56 Mostly Cloudy 26 -3.3 18 -7.7 72 72 W 9 15 30.34 1028 10 16 N/A
10:56 pm 22:56 Mostly Cloudy 25 -3.8 17 -8.3 71 71 W 6 9 30.35 1028 10 16 N/A
11:17 pm 23:17 Mostly Cloudy 25 -4 18 -8 74 74 W 6 9 30.39 1029 10 16 N/A
11:26 pm 23:26 Partly Cloudy 25 -4 18 -8 74 74 WNW 6 9 30.39 1029 10 16 N/A
11:56 pm 23:56 Clear 23 -5 18 -7.7 82 82 WNW 5 7 30.36 1028 10 16 N/A

Powered by AerisWeather